[[{"header":{"parameterUnit":"m.s-1","parameterCategory":1,"la1":30.2991,"la2":30.254,"lo1":-89.0895,"lo2":-89.0444,"dy":0.0017,"dx":0.0017,"nx":28,"ny":28,"refTime":"2024-02-20T09:00:00:Z","depth":0,"parameterNumber":2,"parameterNumberName":"U-component_of_WINDS"},"data":[0,0,0,0,0,0,0,0,0,0,0,0,0,0,0,0,0,0,0,0,0,0,0,0,0,0,0,0,0,0,0,0,0,0,0,0,0,0,0,0,0,0,0,0,0,0,0,0,0,0,0,0,0,0,0,0,0,0,1.2938,1.294,0,1.3058,1.306,1.3061,1.3089,1.3088,1.3087,1.3087,1.3208,1.3212,1.3216,0,0,0,0,0,0,0,0,0,0,0,0,0,1.2733,1.2736,1.2938,1.294,1.2941,1.3058,1.306,1.3061,1.3089,1.3088,1.3087,1.3086,1.3207,1.3212,1.3216,0,0,0,0,0,0,0,0,0,0,0,0,0,1.2834,1.2738,1.2938,1.2969,1.2973,1.3058,1.306,1.3062,1.3089,1.3088,1.3087,1.3086,1.3205,1.3211,1.3217,1.3278,0,0,1.3235,1.3238,0,0,0,0,0,0,0,0,1.2828,1.2842,1.2963,1.2967,1.2972,1.3058,1.3032,1.3134,1.309,1.3045,1.3087,1.3085,1.3159,1.3169,1.3194,1.3284,1.3289,1.3236,1.3239,1.3242,1.3244,0,0,0,0,0,0,0,1.2821,1.2837,1.2986,1.2965,1.297,1.2977,1.299,1.3051,1.3107,1.3049,1.3051,1.3065,1.3161,1.3188,1.3197,1.3291,1.3236,1.3241,1.3245,1.3247,1.3439,1.344,0,0,0,0,0,0,1.2809,1.2831,1.2982,1.2989,1.2896,1.2982,1.2997,1.3031,1.3107,1.3117,1.3066,1.3066,1.3178,1.319,1.3201,1.3278,1.3242,1.3248,1.3251,1.3438,1.3439,1.3441,0,0,0,0,0,0,1.2805,1.2822,1.2977,1.2911,1.2931,1.2987,1.3025,1.3034,1.3061,1.312,1.313,1.3083,1.3178,1.3193,1.3259,1.3283,1.325,1.3256,1.3436,1.3438,1.344,1.3433,0,0,0,0,0,0,1.2799,1.282,1.2844,1.2911,1.2934,1.3033,1.3027,1.3037,1.3072,1.3073,1.3139,1.3148,1.3178,1.325,1.3265,1.3291,1.326,1.3434,1.3437,1.3439,1.3431,1.3434,1.3437,0,0,0,0,0,1.2791,1.2837,1.2845,1.2863,1.2965,1.3034,1.3047,1.3081,1.3073,1.3098,1.3136,1.3146,1.3278,1.3257,1.3274,1.3301,1.3432,1.3436,1.3439,1.3429,1.3434,1.3437,0,0,0,0,0,0,1.277,1.2846,1.2856,1.2925,1.2973,1.3039,1.307,1.3084,1.3135,1.3134,1.3173,1.3188,1.3252,1.3284,1.3258,1.3366,1.3355,1.3362,1.3342,1.3346,1.3349,1.334,1.3265,0,0,0,0,0,1.2773,1.2823,1.2887,1.2941,1.2965,1.3014,1.3045,1.3067,1.3118,1.3138,1.3181,1.323,1.3283,1.3317,1.3369,1.3437,1.3451,1.3464,1.3467,1.3469,1.3474,1.3513,1.352,1.3452,1.3452,1.3452,0,0,1.278,1.2828,1.2857,1.2938,1.2978,1.3029,1.303,1.3084,1.3122,1.3146,1.3212,1.3245,1.3303,1.3371,1.3403,1.3399,1.3497,1.3474,1.3475,1.3479,1.3517,1.3524,1.3529,1.3454,1.3454,1.3454,0,0,1.2819,1.286,1.291,1.2951,1.3012,1.3045,1.3057,1.3121,1.3145,1.3211,1.3231,1.3277,1.3367,1.3408,1.344,1.3497,1.3508,1.3513,1.3528,1.3566,1.3571,1.3576,1.3596,1.3603,1.3518,1.3518,1.3518,0,1.282,1.2897,1.2934,1.2987,1.3023,1.3049,1.31,1.3138,1.3212,1.3236,1.3231,1.3346,1.3386,1.3464,1.3478,1.3503,1.3518,1.3504,1.3567,1.3573,1.3578,1.3597,1.3605,1.3518,1.3518,1.3518,1.3518,0,1.2895,1.2949,1.2982,1.3054,1.3094,1.3145,1.319,1.3226,1.3246,1.3279,1.3347,1.3397,1.346,1.348,1.3499,1.3561,1.3557,1.356,1.355,1.3584,1.3603,1.361,1.3518,1.3518,1.3518,1.3518,0,0,1.2921,1.3015,1.3026,1.306,1.3131,1.3173,1.3227,1.3289,1.3318,1.337,1.3415,1.3492,1.3496,1.3532,1.3557,1.359,1.3632,1.3588,1.359,1.3594,1.3703,1.37,1.3708,1.3641,1.3642,1.3644,1.3698,0,1.2967,1.3064,1.31,1.3179,1.3229,1.3257,1.3304,1.3352,1.3385,1.3433,1.3469,1.3523,1.3523,1.3546,1.358,1.3619,1.3654,1.3616,1.3683,1.3685,1.3666,1.3718,1.3714,1.3763,1.3706,1.3707,1.3708,0,1.3034,1.3087,1.3171,1.3237,1.326,1.3301,1.3362,1.3407,1.3463,1.3485,1.3527,1.355,1.3607,1.3596,1.3676,1.3649,1.3679,1.3703,1.3706,1.3712,1.3697,1.3724,1.3779,1.3786,1.372,1.3719,1.3718,0,1.3043,1.3136,1.3199,1.3227,1.3305,1.3334,1.3368,1.3423,1.3459,1.3512,1.3536,1.3595,1.3627,1.3672,1.3711,1.3699,1.3787,1.3779,1.3806,1.3805,1.3822,1.382,1.3881,1.3844,1.3843,1.3843,1.3843,0,1.309,1.3141,1.3204,1.3242,1.33,1.3342,1.3398,1.3434,1.3483,1.3529,1.3556,1.3599,1.3648,1.3697,1.3727,1.3789,1.3803,1.3822,1.3829,1.3819,1.3816,1.3838,1.3835,1.3845,1.3845,1.3845,1.3844,0,1.3109,1.3154,1.3224,1.3294,1.3313,1.3352,1.3411,1.345,1.3485,1.3543,1.3559,1.3614,1.3674,1.3717,1.3794,1.3814,1.388,1.3888,1.3861,1.3864,1.3889,1.3886,1.3965,1.3977,1.3932,1.3933,1.3933,0,1.3136,1.3175,1.325,1.3283,1.3317,1.337,1.3407,1.3451,1.3488,1.3556,1.3587,1.3648,1.3699,1.3793,1.384,1.3899,1.3908,1.3932,1.3916,1.3905,1.3907,1.3904,1.3908,1.3933,1.3933,1.3933,1.3934,0,1.3178,1.3198,1.3251,1.3312,1.3356,1.3406,1.3456,1.3482,1.3534,1.3575,1.3637,1.3676,1.3756,1.3816,1.388,1.3915,1.3933,1.3938,1.3948,1.3936,1.3919,1.3928,1.3865,1.3936,1.3936,1.3935,1.3935,1.3935,1.3201,1.3237,1.3296,1.3354,1.3397,1.3444,1.3484,1.3525,1.3577,1.3645,1.3668,1.3732,1.3789,1.3877,1.3913,1.3963,1.3963,1.3976,1.398,1.3982,1.3981,1.3913,1.3975,1.3975,1.3975,1.3975,1.3975,0,1.3243,1.3283,1.3336,1.3406,1.3452,1.3467,1.3524,1.3561,1.3617,1.3669,1.372,1.3791,1.3851,1.3903,1.3965,1.3996,1.4005,1.401,1.4008,1.4016,1.3978,1.3964,1.4001,1.4001,1.4001,1.4001,1.4001,1.4001,1.327,1.3334,1.3362,1.3447,1.3487,1.3549,1.3581,1.3625,1.3666,1.3745,1.3795,1.3829,1.3882,1.3948,1.4004,1.4018,1.4039,1.4042,1.4058,1.4021,1.4018,1.4015,1.4001,1.4046,1.4046,1.4091,1.4091,1.4091]},{"header":{"parameterUnit":"m.s-1","parameterCategory":1,"la1":30.2991,"la2":30.254,"lo1":-89.0895,"lo2":-89.0444,"dy":0.0017,"dx":0.0017,"nx":28,"ny":28,"refTime":"2024-02-20T09:00:00:Z","depth":0,"parameterNumber":3,"parameterNumberName":"V-component_of_WINDS"},"data":[0,0,0,0,0,0,0,0,0,0,0,0,0,0,0,0,0,0,0,0,0,0,0,0,0,0,0,0,0,0,0,0,0,0,0,0,0,0,0,0,0,0,0,0,0,0,0,0,0,0,0,0,0,0,0,0,0,0,2.4142,2.4142,0,2.4148,2.4148,2.4148,2.4118,2.4117,2.4116,2.4115,2.4121,2.4121,2.4122,0,0,0,0,0,0,0,0,0,0,0,0,0,2.4102,2.4103,2.4142,2.4142,2.4142,2.4148,2.4148,2.4148,2.4118,2.4117,2.4116,2.4115,2.412,2.4121,2.4122,0,0,0,0,0,0,0,0,0,0,0,0,0,2.4115,2.4103,2.4142,2.4128,2.4126,2.4148,2.4148,2.4148,2.4118,2.4117,2.4116,2.4114,2.412,2.4121,2.4123,2.4158,0,0,2.4127,2.4128,0,0,0,0,0,0,0,0,2.4114,2.4116,2.413,2.4129,2.4127,2.4131,2.4136,2.4152,2.4119,2.4121,2.4115,2.4114,2.4125,2.4126,2.413,2.4158,2.4158,2.4127,2.4128,2.4129,2.4129,0,0,0,0,0,0,0,2.4113,2.4116,2.4144,2.413,2.4128,2.4121,2.4121,2.4139,2.413,2.4121,2.4119,2.412,2.4124,2.4129,2.413,2.4159,2.4127,2.4128,2.4129,2.413,2.4216,2.4217,0,0,0,0,0,0,2.4114,2.4115,2.4144,2.4144,2.4117,2.4122,2.4123,2.4131,2.413,2.4129,2.4121,2.4119,2.4127,2.4128,2.413,2.4171,2.4129,2.413,2.4131,2.4215,2.4216,2.4218,0,0,0,0,0,0,2.4114,2.4117,2.4144,2.4129,2.4132,2.4124,2.4134,2.4132,2.4136,2.413,2.4128,2.4127,2.4126,2.4128,2.4151,2.4171,2.4131,2.4132,2.4213,2.4215,2.4217,2.4253,0,0,0,0,0,0,2.4113,2.4117,2.4131,2.413,2.4133,2.4165,2.4135,2.4133,2.4139,2.4136,2.4136,2.4134,2.4125,2.4149,2.4153,2.4172,2.4133,2.4211,2.4214,2.4217,2.425,2.4257,2.4262,0,0,0,0,0,2.4111,2.414,2.4132,2.4135,2.415,2.4167,2.4168,2.4157,2.4141,2.4154,2.415,2.4134,2.4168,2.4152,2.4156,2.4175,2.421,2.4213,2.4216,2.4248,2.4255,2.4262,0,0,0,0,0,0,2.4143,2.414,2.413,2.416,2.4164,2.4161,2.4178,2.4166,2.4174,2.417,2.4156,2.4156,2.4182,2.4181,2.4163,2.421,2.4186,2.419,2.4209,2.4216,2.4222,2.4221,2.4134,0,0,0,0,0,2.4154,2.4168,2.4164,2.4191,2.4193,2.4186,2.4192,2.4184,2.4187,2.4188,2.4186,2.419,2.4201,2.4209,2.4219,2.4251,2.425,2.4266,2.4272,2.4277,2.428,2.4296,2.4303,2.4228,2.4228,2.4228,0,0,2.4175,2.4175,2.4185,2.4197,2.4199,2.4214,2.4187,2.4204,2.4214,2.4191,2.4212,2.4211,2.4214,2.4242,2.4254,2.4242,2.4301,2.4281,2.4284,2.4285,2.43,2.4308,2.4314,2.4231,2.423,2.423,0,0,2.4222,2.4224,2.4246,2.4249,2.4253,2.4247,2.4253,2.4253,2.4251,2.4273,2.4256,2.4268,2.4288,2.4291,2.4295,2.4344,2.4329,2.4347,2.4376,2.4393,2.4399,2.4404,2.4421,2.4427,2.4351,2.4351,2.4351,0,2.4248,2.427,2.4259,2.4277,2.4283,2.4263,2.4285,2.4288,2.4295,2.4299,2.4286,2.4311,2.4311,2.4339,2.4351,2.4356,2.4361,2.4347,2.4399,2.4404,2.4409,2.4424,2.4431,2.4353,2.4353,2.4353,2.4353,0,2.4302,2.4317,2.4335,2.4342,2.435,2.437,2.4362,2.4371,2.4362,2.4358,2.4381,2.4381,2.4391,2.4397,2.4388,2.4424,2.4416,2.4401,2.4377,2.4418,2.4433,2.4439,2.4356,2.4356,2.4355,2.4354,0,0,2.4367,2.4369,2.4376,2.4379,2.4382,2.4394,2.4413,2.4423,2.4431,2.4437,2.4452,2.447,2.4456,2.4461,2.4452,2.4467,2.4505,2.445,2.445,2.4459,2.4544,2.4555,2.4562,2.4496,2.4497,2.4498,2.4543,0,2.4412,2.4445,2.4436,2.4469,2.4483,2.4465,2.4482,2.4486,2.4483,2.4494,2.4491,2.4503,2.4485,2.4487,2.4501,2.4497,2.4522,2.4494,2.4509,2.451,2.4508,2.4569,2.4581,2.4623,2.4549,2.455,2.4551,0,2.4469,2.4478,2.4512,2.4513,2.4519,2.4534,2.4543,2.4554,2.4558,2.4555,2.4561,2.4549,2.4568,2.4545,2.457,2.4551,2.4557,2.4557,2.4558,2.4558,2.4532,2.457,2.4637,2.4643,2.456,2.4559,2.4559,0,2.4512,2.4533,2.4556,2.4559,2.4561,2.4573,2.4574,2.4576,2.4583,2.4591,2.4595,2.4605,2.461,2.4618,2.4609,2.4593,2.4635,2.4612,2.4633,2.4633,2.4641,2.4641,2.4709,2.4647,2.4647,2.4647,2.4647,0,2.4563,2.4585,2.4575,2.459,2.4613,2.4603,2.4627,2.4626,2.4628,2.4642,2.4627,2.464,2.4628,2.464,2.4634,2.4655,2.4658,2.4655,2.4653,2.4656,2.4656,2.4659,2.4655,2.4649,2.4648,2.4648,2.4648,0,2.4615,2.461,2.4634,2.4634,2.4635,2.4652,2.4652,2.4665,2.4662,2.4679,2.4683,2.4677,2.469,2.4683,2.4696,2.4692,2.472,2.4714,2.4718,2.4716,2.4738,2.4736,2.4809,2.4818,2.4751,2.4752,2.4752,0,2.4647,2.4663,2.4666,2.4674,2.4677,2.469,2.4698,2.4688,2.4696,2.4702,2.4715,2.4727,2.4736,2.4757,2.4754,2.4764,2.4758,2.4783,2.4759,2.4762,2.4757,2.4756,2.4758,2.4788,2.4788,2.4789,2.4789,0,2.4704,2.4701,2.4712,2.4723,2.4732,2.474,2.4746,2.4754,2.4745,2.4755,2.4768,2.4775,2.4789,2.4801,2.481,2.4811,2.4799,2.4797,2.4802,2.4805,2.4807,2.4805,2.473,2.4795,2.4795,2.4794,2.4794,2.4794,2.4747,2.476,2.4765,2.4778,2.4782,2.4788,2.4801,2.4799,2.4811,2.4822,2.4816,2.4832,2.4835,2.4846,2.4849,2.486,2.485,2.4858,2.486,2.4862,2.4864,2.4806,2.4862,2.4862,2.4862,2.4862,2.4862,0,2.4803,2.4805,2.4817,2.4827,2.4837,2.4826,2.4833,2.4842,2.4856,2.4861,2.4871,2.4886,2.4898,2.4896,2.4907,2.4917,2.4911,2.492,2.4918,2.4919,2.4873,2.4867,2.4924,2.4924,2.4924,2.4924,2.4924,2.4924,2.4833,2.4856,2.4853,2.4878,2.4879,2.4895,2.49,2.4906,2.491,2.4928,2.4938,2.4937,2.4939,2.495,2.496,2.4959,2.4964,2.4974,2.4971,2.4928,2.4922,2.4916,2.491,2.4975,2.4975,2.5015,2.5016,2.5016]}]]